| time (UTC) | temp C | wind direction | speed KPH | gust KPH | rain 1hr cm | rain 24hr cm | rain mn cm | humidity % | barometer mb |
| 20260506145421 | 7 | 15 | 0.0 | 0.0 | 0.00 | 0.00 | 0.00 | 99 | 1017.0 |
| 20260506144919 | 7 | 180 | 0.0 | 0.0 | 0.00 | 0.00 | 0.00 | 99 | 1016.8 |
| 20260506144415 | 7 | 180 | 0.0 | 1.6 | 0.00 | 0.00 | 0.00 | 99 | 1017.0 |
| 20260506143914 | 7 | 203 | 0.0 | 0.0 | 0.00 | 0.00 | 0.00 | 99 | 1016.9 |
| 20260506143410 | 7 | 203 | 1.6 | 1.6 | 0.00 | 0.00 | 0.00 | 99 | 1016.7 |
| 20260506142909 | 7 | 175 | 0.0 | 0.0 | 0.00 | 0.00 | 0.00 | 99 | 1016.8 |
| 20260506142406 | 7 | 175 | 3.2 | 3.2 | 0.00 | 0.00 | 0.00 | 99 | 1016.8 |
| 20260506141904 | 7 | 174 | 0.0 | 0.0 | 0.00 | 0.00 | 0.00 | 99 | 1016.5 |
| 20260506141402 | 7 | 180 | 0.0 | 0.0 | 0.00 | 0.00 | 0.00 | 99 | 1016.7 |
| 20260506140900 | 7 | 180 | 0.0 | 0.0 | 0.00 | 0.00 | 0.00 | 99 | 1016.9 |
| 20260506140356 | 7 | 165 | 0.0 | 0.0 | 0.00 | 0.00 | 0.00 | 99 | 1016.7 |
| 20260506135854 | 7 | 165 | 0.0 | 0.0 | 0.00 | 0.00 | 0.00 | 99 | 1016.5 |
| 20260506135350 | 7 | 165 | 0.0 | 0.0 | 0.00 | 0.00 | 0.00 | 99 | 1016.5 |
| 20260506134846 | 7 | 165 | 0.0 | 0.0 | 0.00 | 0.00 | 0.00 | 99 | 1016.5 |
| 20260506134343 | 7 | 165 | 0.0 | 1.6 | 0.00 | 0.00 | 0.00 | 99 | 1016.4 |
| 20260506133840 | 7 | 7 | 0.0 | 0.0 | 0.00 | 0.00 | 0.00 | 99 | 1016.4 |
| 20260506133337 | 7 | 7 | 0.0 | 0.0 | 0.00 | 0.00 | 0.00 | 99 | 1016.5 |
| 20260506132833 | 7 | 7 | 0.0 | 0.0 | 0.00 | 0.00 | 0.00 | 99 | 1016.5 |
| 20260506132331 | 7 | 7 | 0.0 | 0.0 | 0.00 | 0.00 | 0.00 | 99 | 1016.4 |
| 20260506131829 | 7 | 7 | 0.0 | 0.0 | 0.00 | 0.00 | 0.00 | 99 | 1016.4 |
| 20260506131325 | 7 | 7 | 0.0 | 0.0 | 0.00 | 0.00 | 0.00 | 99 | 1016.2 |
| 20260506130822 | 7 | 7 | 0.0 | 0.0 | 0.00 | 0.00 | 0.00 | 99 | 1016.2 |
| 20260506130318 | 7 | 7 | 0.0 | 0.0 | 0.00 | 0.00 | 0.00 | 99 | 1016.1 |
| 20260506125816 | 7 | 15 | 0.0 | 1.6 | 0.00 | 0.00 | 0.00 | 99 | 1016.2 |
| 20260506125314 | 7 | 180 | 0.0 | 0.0 | 0.00 | 0.00 | 0.00 | 99 | 1016.0 |
| 20260506124813 | 7 | 194 | 0.0 | 1.6 | 0.00 | 0.00 | 0.00 | 99 | 1016.2 |
| 20260506124309 | 7 | 180 | 0.0 | 0.0 | 0.00 | 0.00 | 0.00 | 99 | 1016.3 |
| 20260506123807 | 7 | 180 | 0.0 | 0.0 | 0.00 | 0.00 | 0.00 | 99 | 1016.1 |
| 20260506123305 | 7 | 180 | 0.0 | 1.6 | 0.00 | 0.00 | 0.00 | 99 | 1016.3 |
| 20260506122802 | 7 | 195 | 0.0 | 0.0 | 0.00 | 0.00 | 0.00 | 99 | 1016.1 |
| 20260506122259 | 7 | 195 | 0.0 | 0.0 | 0.00 | 0.00 | 0.00 | 99 | 1016.1 |
| 20260506121757 | 7 | 195 | 0.0 | 0.0 | 0.00 | 0.00 | 0.00 | 99 | 1016.0 |
| 20260506121254 | 7 | 195 | 0.0 | 0.0 | 0.00 | 0.00 | 0.00 | 99 | 1016.1 |
| 20260506120751 | 7 | 195 | 0.0 | 0.0 | 0.00 | 0.00 | 0.00 | 99 | 1016.0 |
| 20260506120249 | 7 | 195 | 0.0 | 0.0 | 0.00 | 0.00 | 0.00 | 99 | 1015.8 |
| 20260506115746 | 7 | 195 | 0.0 | 0.0 | 0.00 | 0.00 | 0.00 | 99 | 1015.9 |
| 20260506115244 | 7 | 195 | 0.0 | 0.0 | 0.00 | 0.00 | 0.00 | 99 | 1015.9 |
| 20260506114742 | 7 | 195 | 0.0 | 0.0 | 0.00 | 0.00 | 0.00 | 99 | 1015.6 |
| 20260506114239 | 7 | 195 | 0.0 | 0.0 | 0.00 | 0.00 | 0.00 | 99 | 1015.8 |
| 20260506113737 | 7 | 195 | 0.0 | 0.0 | 0.00 | 0.00 | 0.00 | 99 | 1015.6 |
| 20260506113234 | 7 | 195 | 0.0 | 0.0 | 0.00 | 0.00 | 0.00 | 99 | 1015.5 |
| 20260506112731 | 7 | 195 | 0.0 | 0.0 | 0.00 | 0.00 | 0.00 | 99 | 1015.8 |
| 20260506112228 | 7 | 195 | 0.0 | 0.0 | 0.00 | 0.00 | 0.00 | 99 | 1015.6 |
| 20260506111726 | 7 | 195 | 0.0 | 0.0 | 0.00 | 0.00 | 0.00 | 99 | 1015.8 |
| 20260506111224 | 7 | 195 | 0.0 | 0.0 | 0.00 | 0.00 | 0.00 | 99 | 1015.5 |
| 20260506110721 | 7 | 195 | 0.0 | 0.0 | 0.00 | 0.00 | 0.00 | 99 | 1015.4 |
| 20260506110218 | 7 | 195 | 0.0 | 0.0 | 0.00 | 0.00 | 0.00 | 99 | 1015.5 |
| 20260506105714 | 7 | 195 | 0.0 | 0.0 | 0.00 | 0.00 | 0.00 | 99 | 1015.6 |
| 20260506105211 | 7 | 195 | 0.0 | 0.0 | 0.00 | 0.00 | 0.00 | 99 | 1015.4 |
| 20260506104710 | 7 | 195 | 0.0 | 0.0 | 0.00 | 0.00 | 0.00 | 99 | 1015.4 |
| 20260506104207 | 7 | 342 | 0.0 | 0.0 | 0.00 | 0.00 | 0.00 | 99 | 1015.2 |
| 20260506103703 | 7 | 342 | 0.0 | 0.0 | 0.00 | 0.00 | 0.00 | 99 | 1015.3 |
| 20260506103201 | 7 | 342 | 0.0 | 0.0 | 0.00 | 0.00 | 0.00 | 99 | 1015.3 |
| 20260506102659 | 7 | 342 | 0.0 | 0.0 | 0.00 | 0.00 | 0.00 | 99 | 1015.2 |
| 20260506102156 | 7 | 342 | 0.0 | 0.0 | 0.00 | 0.00 | 0.00 | 99 | 1015.3 |
| 20260506101653 | 7 | 342 | 0.0 | 0.0 | 0.00 | 0.00 | 0.00 | 99 | 1015.0 |
| 20260506101149 | 7 | 342 | 0.0 | 0.0 | 0.00 | 0.00 | 0.00 | 99 | 1014.9 |
| 20260506100648 | 7 | 342 | 0.0 | 0.0 | 0.00 | 0.00 | 0.00 | 99 | 1015.1 |
| 20260506100146 | 7 | 342 | 0.0 | 0.0 | 0.00 | 0.00 | 0.00 | 99 | 1015.0 |
| 20260506095644 | 7 | 342 | 0.0 | 0.0 | 0.00 | 0.00 | 0.00 | 99 | 1015.1 |
| 20260506095140 | 7 | 342 | 0.0 | 0.0 | 0.00 | 0.00 | 0.00 | 99 | 1015.1 |
| 20260506094638 | 7 | 342 | 0.0 | 0.0 | 0.00 | 0.00 | 0.00 | 99 | 1015.0 |
| 20260506094135 | 7 | 342 | 0.0 | 0.0 | 0.00 | 0.00 | 0.00 | 99 | 1015.0 |
| 20260506093634 | 7 | 342 | 0.0 | 0.0 | 0.00 | 0.00 | 0.00 | 99 | 1015.0 |
| 20260506093131 | 7 | 342 | 0.0 | 0.0 | 0.00 | 0.00 | 0.00 | 99 | 1015.1 |
| 20260506092628 | 7 | 342 | 0.0 | 0.0 | 0.00 | 0.00 | 0.00 | 99 | 1015.0 |
| 20260506092125 | 7 | 342 | 0.0 | 0.0 | 0.00 | 0.00 | 0.00 | 99 | 1015.2 |
| 20260506091623 | 7 | 0 | 0.0 | 0.0 | 0.00 | 0.00 | 0.00 | 99 | 1015.0 |
| 20260506091121 | 7 | 0 | 0.0 | 0.0 | 0.00 | 0.00 | 0.00 | 99 | 1015.1 |
| 20260506090619 | 7 | 0 | 0.0 | 0.0 | 0.00 | 0.00 | 0.00 | 99 | 1015.2 |
| 20260506090114 | 7 | 0 | 0.0 | 0.0 | 0.00 | 0.00 | 0.00 | 99 | 1015.1 |
| 20260506085611 | 7 | 345 | 0.0 | 0.0 | 0.00 | 0.00 | 0.00 | 99 | 1015.1 |
| 20260506085108 | 7 | 345 | 0.0 | 1.6 | 0.00 | 0.00 | 0.00 | 99 | 1015.3 |
| 20260506084605 | 7 | 180 | 0.0 | 0.0 | 0.00 | 0.00 | 0.00 | 99 | 1015.0 |
| 20260506084101 | 7 | 180 | 0.0 | 0.0 | 0.00 | 0.00 | 0.00 | 99 | 1015.1 |
| 20260506083558 | 7 | 180 | 0.0 | 0.0 | 0.00 | 0.00 | 0.00 | 99 | 1014.9 |
| 20260506083055 | 7 | 180 | 0.0 | 0.0 | 0.00 | 0.00 | 0.00 | 99 | 1015.3 |
| 20260506082552 | 7 | 180 | 0.0 | 0.0 | 0.00 | 0.00 | 0.00 | 99 | 1015.1 |
| 20260506082048 | 7 | 180 | 0.0 | 0.0 | 0.00 | 0.00 | 0.00 | 99 | 1015.0 |
| 20260506081546 | 7 | 180 | 0.0 | 0.0 | 0.00 | 0.00 | 0.00 | 99 | 1015.2 |
| 20260506081043 | 7 | 180 | 0.0 | 0.0 | 0.00 | 0.00 | 0.00 | 99 | 1015.1 |
| 20260506080541 | 7 | 180 | 0.0 | 0.0 | 0.00 | 0.00 | 0.00 | 99 | 1015.0 |
| 20260506073524 | 7 | 180 | 0.0 | 0.0 | 0.00 | 0.00 | 0.00 | 99 | 1014.9 |
| 20260506073021 | 7 | 180 | 0.0 | 0.0 | 0.00 | 0.00 | 0.00 | 99 | 1015.2 |
| 20260506072519 | 7 | 180 | 0.0 | 3.2 | 0.00 | 0.00 | 0.00 | 99 | 1015.1 |
| 20260506072016 | 7 | 203 | 0.0 | 0.0 | 0.00 | 0.00 | 0.00 | 99 | 1015.0 |
| 20260506071514 | 7 | 203 | 0.0 | 0.0 | 0.00 | 0.00 | 0.00 | 99 | 1014.7 |
| 20260506071011 | 7 | 203 | 0.0 | 0.0 | 0.00 | 0.00 | 0.00 | 99 | 1014.9 |
| 20260506070508 | 7 | 203 | 0.0 | 0.0 | 0.00 | 0.00 | 0.00 | 99 | 1014.7 |
| 20260506062445 | 7 | 346 | 0.0 | 0.0 | 0.00 | 0.30 | 0.30 | 99 | 1014.3 |
| 20260506061941 | 7 | 346 | 0.0 | 0.0 | 0.00 | 0.30 | 0.30 | 99 | 1014.4 |
| 20260506061438 | 7 | 173 | 0.0 | 0.0 | 0.00 | 0.30 | 0.30 | 99 | 1014.4 |
| 20260506060936 | 7 | 173 | 0.0 | 0.0 | 0.00 | 0.30 | 0.30 | 99 | 1014.4 |
| 20260506060434 | 7 | 173 | 0.0 | 0.0 | 0.00 | 0.30 | 0.30 | 99 | 1014.1 |
| 20260506051406 | 7 | 206 | 0.0 | 0.0 | 0.00 | 0.30 | 0.30 | 99 | 1013.6 |
| 20260506050903 | 7 | 206 | 0.0 | 0.0 | 0.00 | 0.30 | 0.30 | 99 | 1014.0 |
| 20260506050400 | 7 | 206 | 0.0 | 0.0 | 0.00 | 0.30 | 0.30 | 99 | 1014.1 |
| 20260506044851 | 7 | 334 | 0.0 | 0.0 | 0.00 | 0.30 | 0.30 | 99 | 1013.6 |
| 20260506044349 | 7 | 334 | 0.0 | 3.2 | 0.00 | 0.30 | 0.30 | 99 | 1013.7 |
| 20260506043845 | 7 | 334 | 1.6 | 3.2 | 0.18 | 0.30 | 0.30 | 99 | 1014.0 |
| 20260506043343 | 7 | 203 | 0.0 | 0.0 | 0.18 | 0.30 | 0.30 | 99 | 1013.8 |
| 20260506042841 | 7 | 203 | 1.6 | 1.6 | 0.00 | 0.28 | 0.28 | 99 | 1013.6 |
| 20260506042340 | 7 | 340 | 0.0 | 0.0 | 0.00 | 0.28 | 0.28 | 99 | 1013.5 |
| 20260506041838 | 7 | 340 | 0.0 | 0.0 | 0.00 | 0.28 | 0.28 | 99 | 1013.6 |
| 20260506041335 | 7 | 346 | 1.6 | 1.6 | 0.00 | 0.28 | 0.28 | 99 | 1013.4 |
| 20260506040832 | 7 | 340 | 0.0 | 0.0 | 0.00 | 0.28 | 0.28 | 99 | 1013.2 |
| 20260506040329 | 7 | 234 | 0.0 | 0.0 | 0.00 | 0.28 | 0.28 | 99 | 1013.2 |
| 20260506035825 | 7 | 234 | 0.0 | 0.0 | 0.00 | 0.28 | 0.28 | 99 | 1013.4 |
| 20260506035323 | 7 | 234 | 0.0 | 1.6 | 0.00 | 0.28 | 0.28 | 99 | 1013.3 |
| 20260506034820 | 7 | 331 | 0.0 | 3.2 | 0.00 | 0.28 | 0.28 | 99 | 1013.3 |
| 20260506034317 | 7 | 246 | 0.0 | 0.0 | 0.00 | 0.28 | 0.28 | 99 | 1012.9 |
| 20260506033814 | 7 | 340 | 0.0 | 3.2 | 0.00 | 0.28 | 0.28 | 99 | 1013.1 |
| 20260506033311 | 7 | 261 | 0.0 | 0.0 | 0.00 | 0.28 | 0.28 | 99 | 1013.1 |
| 20260506032808 | 8 | 240 | 0.0 | 1.6 | 0.00 | 0.28 | 0.28 | 99 | 1012.7 |
| 20260506032306 | 7 | 340 | 0.0 | 4.8 | 0.00 | 0.28 | 0.28 | 99 | 1012.6 |
| 20260506031801 | 7 | 8 | 0.0 | 0.0 | 0.00 | 0.28 | 0.28 | 99 | 1012.4 |
| 20260506031259 | 8 | 8 | 0.0 | 0.0 | 0.00 | 0.28 | 0.28 | 99 | 1012.5 |
| 20260506030757 | 8 | 8 | 0.0 | 0.0 | 0.00 | 0.28 | 0.28 | 99 | 1012.5 |
| 20260506030254 | 8 | 8 | 0.0 | 0.0 | 0.00 | 0.28 | 0.28 | 99 | 1012.5 |
| 20260506025751 | 8 | 10 | 3.2 | 3.2 | 0.00 | 0.28 | 0.28 | 99 | 1012.6 |
| 20260506025247 | 8 | 352 | 0.0 | 0.0 | 0.00 | 0.28 | 0.28 | 99 | 1012.3 |
| 20260506024744 | 8 | 352 | 0.0 | 0.0 | 0.00 | 0.28 | 0.28 | 99 | 1012.6 |
| 20260506024241 | 8 | 352 | 0.0 | 0.0 | 0.00 | 0.28 | 0.28 | 99 | 1012.5 |
| 20260506023737 | 8 | 331 | 0.0 | 0.0 | 0.00 | 0.28 | 0.28 | 99 | 1012.3 |
| 20260506023234 | 8 | 331 | 0.0 | 0.0 | 0.00 | 0.28 | 0.28 | 99 | 1012.3 |
| 20260506022731 | 8 | 331 | 0.0 | 0.0 | 0.00 | 0.28 | 0.28 | 99 | 1012.4 |
| 20260506022229 | 8 | 331 | 0.0 | 3.2 | 0.00 | 0.28 | 0.28 | 99 | 1012.2 |
| 20260506021727 | 8 | 162 | 1.6 | 3.2 | 0.00 | 0.28 | 0.28 | 99 | 1012.2 |
| 20260506021223 | 8 | 345 | 0.0 | 3.2 | 0.00 | 0.28 | 0.28 | 99 | 1012.3 |
| 20260506020720 | 7 | 352 | 0.0 | 0.0 | 0.00 | 0.28 | 0.28 | 99 | 1011.9 |
| 20260506020218 | 7 | 14 | 0.0 | 0.0 | 0.00 | 0.28 | 0.28 | 99 | 1011.9 |
| 20260506015715 | 7 | 14 | 0.0 | 1.6 | 0.00 | 0.28 | 0.28 | 99 | 1012.2 |
| 20260506015213 | 7 | 15 | 0.0 | 0.0 | 0.00 | 0.28 | 0.28 | 99 | 1012.2 |
| 20260506014710 | 7 | 15 | 0.0 | 0.0 | 0.00 | 0.28 | 0.28 | 99 | 1012.0 |
| 20260506014206 | 7 | 270 | 0.0 | 0.0 | 0.00 | 0.28 | 0.28 | 99 | 1012.3 |
| 20260506013703 | 8 | 270 | 0.0 | 1.6 | 0.00 | 0.28 | 0.28 | 99 | 1012.4 |
| 20260506013200 | 8 | 352 | 0.0 | 1.6 | 0.00 | 0.28 | 0.28 | 99 | 1012.3 |
| 20260506012656 | 8 | 345 | 0.0 | 0.0 | 0.00 | 0.28 | 0.28 | 99 | 1012.0 |
| 20260506012153 | 8 | 337 | 0.0 | 0.0 | 0.00 | 0.28 | 0.28 | 99 | 1012.2 |
| 20260506011651 | 8 | 337 | 0.0 | 1.6 | 0.00 | 0.28 | 0.28 | 99 | 1012.0 |
| 20260506011147 | 8 | 337 | 0.0 | 0.0 | 0.00 | 0.28 | 0.28 | 99 | 1011.8 |
| 20260506010646 | 8 | 337 | 1.6 | 1.6 | 0.00 | 0.28 | 0.28 | 99 | 1012.0 |
| 20260506010143 | 7 | 0 | 0.0 | 0.0 | 0.00 | 0.28 | 0.28 | 99 | 1011.6 |
| 20260506005639 | 7 | 0 | 0.0 | 0.0 | 0.00 | 0.28 | 0.28 | 99 | 1011.6 |
| 20260506005136 | 7 | 0 | 0.0 | 0.0 | 0.00 | 0.28 | 0.28 | 99 | 1011.8 |
| 20260506004632 | 7 | 0 | 0.0 | 0.0 | 0.00 | 0.28 | 0.28 | 99 | 1011.7 |
| 20260506004130 | 7 | 0 | 0.0 | 0.0 | 0.00 | 0.28 | 0.28 | 99 | 1011.7 |
| 20260506003626 | 7 | 0 | 0.0 | 0.0 | 0.00 | 0.28 | 0.28 | 99 | 1011.8 |
| 20260506003122 | 7 | 0 | 0.0 | 0.0 | 0.00 | 0.28 | 0.28 | 99 | 1011.7 |
| 20260506002618 | 7 | 0 | 0.0 | 0.0 | 0.00 | 0.28 | 0.28 | 99 | 1011.8 |
| 20260506002114 | 7 | 278 | 0.0 | 0.0 | 0.00 | 0.28 | 0.28 | 99 | 1011.8 |
| 20260506001610 | 7 | 278 | 0.0 | 0.0 | 0.00 | 0.28 | 0.28 | 99 | 1011.6 |
| 20260506001108 | 7 | 294 | 1.6 | 1.6 | 0.00 | 0.28 | 0.28 | 99 | 1011.8 |
| 20260506000605 | 7 | 331 | 0.0 | 3.2 | 0.00 | 0.28 | 0.28 | 99 | 1011.7 |
| 20260505235601 | 7 | 355 | 0.0 | 3.2 | 0.00 | 0.28 | 0.28 | 99 | 1011.6 |
| 20260505235057 | 7 | 0 | 3.2 | 6.4 | 0.00 | 0.28 | 0.28 | 99 | 1011.5 |
| 20260505234554 | 7 | 337 | 0.0 | 1.6 | 0.00 | 0.28 | 0.28 | 99 | 1011.5 |
| 20260505234050 | 7 | 6 | 0.0 | 0.0 | 0.00 | 0.28 | 0.28 | 99 | 1011.5 |
| 20260505233549 | 7 | 6 | 0.0 | 1.6 | 0.00 | 0.28 | 0.28 | 99 | 1011.5 |
| 20260505233046 | 7 | 356 | 3.2 | 3.2 | 0.00 | 0.28 | 0.28 | 99 | 1011.4 |
| 20260505232543 | 7 | 0 | 0.0 | 3.2 | 0.00 | 0.28 | 0.28 | 99 | 1011.7 |
| 20260505232041 | 7 | 0 | 0.0 | 1.6 | 0.00 | 0.28 | 0.28 | 99 | 1011.5 |
| 20260505231537 | 7 | 325 | 0.0 | 3.2 | 0.00 | 0.28 | 0.28 | 99 | 1011.4 |
| 20260505231036 | 7 | 240 | 1.6 | 3.2 | 0.00 | 0.28 | 0.28 | 99 | 1011.6 |
| 20260505230533 | 7 | 251 | 1.6 | 1.6 | 0.00 | 0.28 | 0.28 | 99 | 1011.5 |
| 20260505230030 | 7 | 353 | 0.0 | 3.2 | 0.00 | 0.28 | 0.28 | 99 | 1011.5 |
| 20260505225526 | 7 | 251 | 1.6 | 3.2 | 0.00 | 0.28 | 0.28 | 99 | 1011.6 |
| 20260505225022 | 7 | 0 | 1.6 | 1.6 | 0.00 | 0.28 | 0.28 | 99 | 1011.4 |
| 20260505224520 | 7 | 354 | 1.6 | 3.2 | 0.00 | 0.28 | 0.28 | 99 | 1011.4 |
| 20260505224017 | 7 | 330 | 0.0 | 3.2 | 0.00 | 0.28 | 0.28 | 99 | 1011.7 |
| 20260505223514 | 7 | 356 | 3.2 | 3.2 | 0.00 | 0.28 | 0.28 | 99 | 1011.5 |
| 20260505223010 | 7 | 354 | 1.6 | 3.2 | 0.00 | 0.28 | 0.28 | 99 | 1011.7 |
| 20260505222506 | 7 | 7 | 1.6 | 1.6 | 0.00 | 0.28 | 0.28 | 99 | 1011.5 |
| 20260505222002 | 7 | 354 | 0.0 | 3.2 | 0.00 | 0.28 | 0.28 | 99 | 1011.5 |
| 20260505221500 | 7 | 254 | 0.0 | 3.2 | 0.00 | 0.28 | 0.28 | 99 | 1011.6 |
| 20260505220957 | 7 | 300 | 0.0 | 1.6 | 0.00 | 0.28 | 0.28 | 99 | 1011.5 |
| 20260505220453 | 7 | 348 | 0.0 | 3.2 | 0.00 | 0.28 | 0.28 | 99 | 1011.6 |
| 20260505215951 | 7 | 215 | 0.0 | 0.0 | 0.00 | 0.28 | 0.28 | 99 | 1011.6 |
| 20260505215449 | 7 | 209 | 0.0 | 3.2 | 0.00 | 0.28 | 0.28 | 99 | 1011.6 |
| 20260505214947 | 7 | 270 | 0.0 | 1.6 | 0.00 | 0.28 | 0.28 | 99 | 1011.6 |
| 20260505214444 | 7 | 300 | 0.0 | 3.2 | 0.00 | 0.28 | 0.28 | 99 | 1011.7 |
| 20260505213941 | 7 | 343 | 4.8 | 4.8 | 0.00 | 0.28 | 0.28 | 99 | 1011.6 |
| 20260505213439 | 7 | 334 | 0.0 | 3.2 | 0.00 | 0.28 | 0.28 | 99 | 1011.7 |
| 20260505212935 | 7 | 294 | 0.0 | 4.8 | 0.00 | 0.28 | 0.28 | 99 | 1011.6 |
| 20260505212432 | 7 | 338 | 0.0 | 9.7 | 0.00 | 0.28 | 0.28 | 99 | 1011.7 |
| 20260505211928 | 7 | 353 | 1.6 | 1.6 | 0.00 | 0.28 | 0.28 | 99 | 1011.7 |
| 20260505211426 | 7 | 15 | 3.2 | 3.2 | 0.00 | 0.28 | 0.28 | 99 | 1011.8 |
| 20260505210922 | 7 | 340 | 0.0 | 1.6 | 0.00 | 0.28 | 0.28 | 99 | 1011.9 |
| 20260505210420 | 7 | 4 | 3.2 | 4.8 | 0.00 | 0.28 | 0.28 | 99 | 1011.6 |
| 20260505205916 | 7 | 346 | 4.8 | 4.8 | 0.00 | 0.28 | 0.28 | 99 | 1011.5 |
| 20260505205415 | 7 | 294 | 1.6 | 3.2 | 0.00 | 0.28 | 0.28 | 99 | 1011.7 |
| 20260505204911 | 7 | 243 | 0.0 | 3.2 | 0.00 | 0.28 | 0.28 | 99 | 1011.4 |
| 20260505204409 | 7 | 270 | 1.6 | 3.2 | 0.00 | 0.28 | 0.28 | 99 | 1011.6 |
| 20260505203906 | 7 | 283 | 0.0 | 1.6 | 0.00 | 0.28 | 0.28 | 99 | 1011.3 |
| 20260505203402 | 7 | 337 | 0.0 | 1.6 | 0.00 | 0.28 | 0.28 | 99 | 1011.5 |
| 20260505202859 | 7 | 254 | 3.2 | 3.2 | 0.00 | 0.28 | 0.28 | 99 | 1011.5 |
| 20260505202355 | 7 | 0 | 1.6 | 4.8 | 0.00 | 0.28 | 0.28 | 99 | 1011.5 |
| 20260505201852 | 7 | 351 | 4.8 | 4.8 | 0.00 | 0.28 | 0.28 | 99 | 1011.6 |
| 20260505201349 | 7 | 254 | 0.0 | 1.6 | 0.00 | 0.28 | 0.28 | 99 | 1011.5 |
| 20260505200847 | 7 | 0 | 1.6 | 3.2 | 0.00 | 0.28 | 0.28 | 99 | 1011.3 |
| 20260505200344 | 7 | 0 | 0.0 | 3.2 | 0.00 | 0.28 | 0.28 | 99 | 1011.5 |
| 20260505195839 | 7 | 354 | 0.0 | 4.8 | 0.00 | 0.28 | 0.28 | 99 | 1011.7 |
| 20260505195337 | 7 | 0 | 1.6 | 4.8 | 0.00 | 0.28 | 0.28 | 99 | 1011.1 |
| 20260505194834 | 7 | 346 | 1.6 | 3.2 | 0.00 | 0.28 | 0.28 | 99 | 1011.5 |
| 20260505194331 | 7 | 0 | 0.0 | 4.8 | 0.00 | 0.28 | 0.28 | 99 | 1011.5 |
| 20260505193826 | 7 | 348 | 0.0 | 1.6 | 0.00 | 0.28 | 0.28 | 99 | 1011.5 |
| 20260505193324 | 7 | 337 | 0.0 | 3.2 | 0.00 | 0.28 | 0.28 | 99 | 1011.5 |
| 20260505192822 | 7 | 306 | 1.6 | 3.2 | 0.00 | 0.28 | 0.28 | 99 | 1011.5 |
| 20260505192320 | 7 | 324 | 0.0 | 3.2 | 0.00 | 0.28 | 0.28 | 99 | 1011.3 |
| 20260505191817 | 7 | 353 | 1.6 | 4.8 | 0.00 | 0.28 | 0.28 | 99 | 1011.5 |
| 20260505191316 | 7 | 340 | 1.6 | 4.8 | 0.00 | 0.28 | 0.28 | 99 | 1011.6 |
| 20260505190812 | 7 | 262 | 0.0 | 3.2 | 0.00 | 0.28 | 0.28 | 99 | 1011.4 |
| 20260505190308 | 7 | 275 | 0.0 | 3.2 | 0.00 | 0.28 | 0.28 | 99 | 1011.1 |
| 20260505185804 | 7 | 254 | 0.0 | 3.2 | 0.00 | 0.28 | 0.28 | 99 | 1011.5 |
| 20260505185300 | 7 | 344 | 0.0 | 3.2 | 0.00 | 0.28 | 0.28 | 99 | 1011.1 |
| 20260505184756 | 7 | 0 | 0.0 | 1.6 | 0.00 | 0.28 | 0.28 | 99 | 1011.3 |
| 20260505184254 | 7 | 246 | 0.0 | 0.0 | 0.00 | 0.28 | 0.28 | 99 | 1011.4 |
| 20260505183751 | 7 | 286 | 0.0 | 1.6 | 0.00 | 0.28 | 0.28 | 99 | 1011.3 |
| 20260505183248 | 6 | 98 | 0.0 | 1.6 | 0.00 | 0.28 | 0.28 | 99 | 1011.5 |
| 20260505182744 | 7 | 195 | 0.0 | 1.6 | 0.00 | 0.28 | 0.28 | 99 | 1011.3 |
| 20260505182241 | 6 | 180 | 0.0 | 0.0 | 0.00 | 0.28 | 0.28 | 99 | 1011.3 |
| 20260505181737 | 6 | 270 | 0.0 | 1.6 | 0.00 | 0.28 | 0.28 | 99 | 1011.0 |
| 20260505181235 | 6 | 345 | 0.0 | 1.6 | 0.00 | 0.28 | 0.28 | 99 | 1011.1 |
| 20260505180731 | 6 | 346 | 0.0 | 3.2 | 0.00 | 0.28 | 0.28 | 99 | 1011.1 |
| 20260505180228 | 7 | 294 | 0.0 | 1.6 | 0.00 | 0.28 | 0.28 | 99 | 1011.1 |
| 20260505175724 | 6 | 278 | 0.0 | 3.2 | 0.00 | 0.28 | 0.28 | 99 | 1010.8 |
| 20260505175221 | 6 | 6 | 0.0 | 1.6 | 0.00 | 0.28 | 0.28 | 99 | 1011.3 |
| 20260505174718 | 6 | 286 | 0.0 | 3.2 | 0.00 | 0.28 | 0.28 | 99 | 1011.0 |
| 20260505174215 | 6 | 345 | 0.0 | 1.6 | 0.00 | 0.28 | 0.28 | 99 | 1010.8 |
| 20260505173710 | 6 | 346 | 0.0 | 4.8 | 0.00 | 0.28 | 0.28 | 99 | 1010.9 |
| 20260505173207 | 6 | 331 | 0.0 | 1.6 | 0.00 | 0.28 | 0.28 | 99 | 1010.9 |
| 20260505172705 | 6 | 346 | 0.0 | 1.6 | 0.00 | 0.28 | 0.28 | 99 | 1010.8 |
| 20260505172201 | 6 | 7 | 0.0 | 1.6 | 0.00 | 0.28 | 0.28 | 99 | 1010.7 |
| 20260505171701 | 6 | 353 | 0.0 | 3.2 | 0.00 | 0.28 | 0.28 | 99 | 1010.7 |
| 20260505171158 | 6 | 12 | 1.6 | 3.2 | 0.00 | 0.28 | 0.28 | 99 | 1010.6 |
| 20260505170655 | 6 | 289 | 0.0 | 0.0 | 0.00 | 0.28 | 0.28 | 99 | 1010.5 |
| 20260505170152 | 6 | 240 | 0.0 | 0.0 | 0.00 | 0.28 | 0.28 | 99 | 1010.7 |
| 20260505165652 | 6 | 270 | 0.0 | 3.2 | 0.00 | 0.28 | 0.28 | 99 | 1010.6 |
| 20260505165148 | 6 | 354 | 1.6 | 1.6 | 0.00 | 0.28 | 0.28 | 99 | 1010.6 |
| 20260505164644 | 6 | 270 | 0.0 | 1.6 | 0.00 | 0.28 | 0.28 | 99 | 1010.8 |
| 20260505164142 | 6 | 291 | 0.0 | 1.6 | 0.00 | 0.28 | 0.28 | 99 | 1010.4 |
| 20260505163640 | 6 | 0 | 0.0 | 1.6 | 0.00 | 0.28 | 0.28 | 99 | 1010.6 |
| 20260505163138 | 6 | 355 | 1.6 | 1.6 | 0.00 | 0.28 | 0.28 | 99 | 1010.7 |
| 20260505162634 | 6 | 337 | 1.6 | 3.2 | 0.00 | 0.28 | 0.28 | 99 | 1010.6 |
| 20260505162132 | 6 | 0 | 0.0 | 0.0 | 0.00 | 0.28 | 0.28 | 99 | 1010.6 |
| 20260505161629 | 6 | 0 | 0.0 | 0.0 | 0.00 | 0.28 | 0.28 | 99 | 1010.7 |
| 20260505161126 | 6 | 97 | 0.0 | 0.0 | 0.00 | 0.28 | 0.28 | 99 | 1010.7 |
| 20260505160624 | 6 | 97 | 0.0 | 0.0 | 0.00 | 0.28 | 0.28 | 99 | 1010.6 |
| 20260505160121 | 6 | 97 | 0.0 | 0.0 | 0.00 | 0.28 | 0.28 | 99 | 1010.5 |
| 20260505153101 | 6 | 82 | 1.6 | 1.6 | 0.00 | 0.28 | 0.28 | 99 | 1010.5 |
| 20260505152557 | 5 | 90 | 0.0 | 1.6 | 0.00 | 0.28 | 0.28 | 99 | 1010.4 |
| 20260505152053 | 5 | 90 | 0.0 | 0.0 | 0.00 | 0.28 | 0.28 | 99 | 1010.4 |
| 20260505151548 | 5 | 90 | 0.0 | 1.6 | 0.00 | 0.28 | 0.28 | 99 | 1010.5 |
| 20260505151046 | 5 | 20 | 0.0 | 1.6 | 0.00 | 0.28 | 0.28 | 99 | 1010.5 |
| 20260505150542 | 5 | 66 | 0.0 | 1.6 | 0.00 | 0.28 | 0.28 | 99 | 1010.2 |